Weather History for Hobart, OK

Change the Weather History Date:

Wednesday, February 20, 2013

  Actual Average Record
Temperature  
Mean Temperature 40 °F -  
Max Temperature 46 °F 52 °F 77 °F (2011)
Min Temperature 35 °F 31 °F 26 °F (2006)
Degree Days  
Heating Degree Days 24    
Moisture  
Dew Point 35 °F    
Average Humidity 87    
Maximum Humidity 96    
Minimum Humidity 41    
Precipitation  
Precipitation 0.27 in - - ()
Sea Level Pressure  
Sea Level Pressure 29.99 in    
Wind  
Wind Speed 21 mph (SE)    
Max Wind Speed 33 mph    
Max Gust Speed 41 mph    
Visibility 8 miles    
Events Rain    
Averages and records for this station are not official NWS values.
T = Trace of Precipitation, MM = Missing Value Source: NWS Daily Summary

Daily Weather History Graph

Daily Weather History Graph

Search for Another Location

Airport:

Trip Planner

Search our weather history database for the weather conditions in past years. The results will help you decide how hot, cold, wet, or windy it might be!

Date:

Astronomy

Feb. 20, 2013 Rise Set
Actual Time 7:16 AM CST 6:24 PM CST
Civil Twilight 6:50 AM CST 6:49 PM CST
Nautical Twilight 6:21 AM CST 7:19 PM CST
Astronomical Twilight 5:51 AM CST 7:48 PM CST
Moon 1:53 PM CST 3:30 AM CST
Length of Visible Light 11h 59m
Length of Day
11h 07m
Waxing Gibbous, 76% of the Moon is Illuminated
Feb 20
Waxing Gibbous
Feb 25
Full
Mar 4
Last Quarter
Mar 11
New
Mar 19
First Quarter

Hourly Weather History & Observations

Time (CST) Temp. Windchill Dew Point Humidity Pressure Visibility Wind Dir Wind Speed Gust Speed Precip Events Conditions
12:53 AM 46.9 °F - 24.1 °F 41% 30.11 in 10.0 mi SSE 26.5 mph 35.7 mph N/A   Overcast
1:53 AM 43.0 °F 35.4 °F 34.0 °F 71% 30.11 in 10.0 mi SSE 16.1 mph - 0.00 in Rain Light Rain
2:53 AM 41.0 °F 30.5 °F 35.1 °F 79% 30.12 in 10.0 mi SSE 26.5 mph 31.1 mph 0.00 in Rain Light Rain
3:04 AM 39.2 °F 29.0 °F 35.6 °F 87% 30.11 in 10.0 mi SSE 21.9 mph 31.1 mph 0.00 in Rain Light Rain
3:13 AM 39.2 °F 29.6 °F 35.6 °F 87% 30.10 in 7.0 mi SSE 19.6 mph 26.5 mph 0.02 in Rain Rain
3:42 AM 39.2 °F 30.5 °F 35.6 °F 87% 30.10 in 7.0 mi SE 16.1 mph - 0.06 in Rain Light Rain
3:53 AM 39.9 °F 30.8 °F 36.0 °F 86% 30.09 in 7.0 mi SE 18.4 mph - 0.06 in Rain Light Rain
4:53 AM 39.0 °F 29.9 °F 36.0 °F 89% 30.08 in 9.0 mi SE 17.3 mph - 0.06 in Rain Light Rain
5:37 AM 39.2 °F 29.6 °F 37.4 °F 93% 30.08 in 7.0 mi SE 19.6 mph - 0.04 in Rain Light Rain
5:53 AM 39.0 °F 28.8 °F 37.0 °F 93% 30.08 in 8.0 mi SE 21.9 mph - 0.06 in Rain Light Rain
6:53 AM 37.9 °F 27.9 °F 36.0 °F 93% 30.07 in 8.0 mi SE 19.6 mph 28.8 mph 0.04 in Rain Light Rain
7:14 AM 39.2 °F 29.0 °F 35.6 °F 87% 30.06 in 9.0 mi SSE 21.9 mph 28.8 mph 0.02 in Rain Light Rain
7:53 AM 39.0 °F 29.3 °F 37.0 °F 93% 30.08 in 9.0 mi SSE 19.6 mph 27.6 mph 0.03 in Rain Light Rain
8:53 AM 39.9 °F 30.0 °F 37.9 °F 93% 30.10 in 10.0 mi SSE 21.9 mph 27.6 mph 0.02 in   Overcast
9:29 AM 39.2 °F 29.3 °F 37.4 °F 93% 30.05 in 10.0 mi SE 20.7 mph - 0.00 in   Overcast
9:40 AM 39.2 °F 29.3 °F 37.4 °F 93% 30.04 in 10.0 mi SE 20.7 mph 29.9 mph 0.00 in   Overcast
9:53 AM 39.9 °F 30.0 °F 37.0 °F 89% 30.04 in 10.0 mi SE 21.9 mph 27.6 mph 0.00 in   Overcast
10:53 AM 43.0 °F 32.0 °F 37.9 °F 82% 30.03 in 10.0 mi SE 33.4 mph 39.1 mph N/A   Overcast
11:53 AM 43.0 °F 32.7 °F 36.0 °F 76% 30.03 in 10.0 mi SE 28.8 mph 41.4 mph N/A   Overcast
12:53 PM 42.1 °F 31.9 °F 35.1 °F 76% 30.00 in 10.0 mi SE 26.5 mph 33.4 mph 0.00 in   Overcast
1:53 PM 41.0 °F 31.1 °F 33.8 °F 76% 29.96 in 10.0 mi SE 23.0 mph 29.9 mph N/A   Overcast
2:32 PM 41.0 °F 31.9 °F 33.8 °F 76% 29.94 in 10.0 mi SE 19.6 mph 28.8 mph N/A   Overcast
2:53 PM 39.2 °F 29.3 °F 33.8 °F 81% 29.93 in 10.0 mi SE 20.7 mph 28.8 mph N/A   Overcast
3:53 PM 37.9 °F 27.6 °F 34.0 °F 86% 29.93 in 10.0 mi ESE 20.7 mph - N/A   Overcast
4:20 PM 37.4 °F 27.2 °F 33.8 °F 87% 29.89 in 10.0 mi SE 19.6 mph - N/A   Overcast
4:53 PM 37.0 °F 26.7 °F 35.1 °F 93% 29.90 in 5.0 mi ESE 19.6 mph - N/A   Overcast
5:53 PM 37.0 °F 26.7 °F 35.1 °F 93% 29.89 in 4.0 mi ESE 19.6 mph - N/A   Overcast
6:30 PM 37.4 °F 28.5 °F 35.6 °F 93% 29.87 in 2.5 mi ESE 15.0 mph - N/A   Overcast
6:53 PM 37.4 °F 28.9 °F 35.6 °F 93% 29.88 in 3.0 mi ESE 13.8 mph - N/A   Overcast
7:53 PM 37.0 °F 28.1 °F 36.0 °F 96% 29.90 in 4.0 mi ESE 15.0 mph - N/A   Overcast
8:53 PM 35.1 °F 25.2 °F 34.0 °F 96% 29.88 in 4.0 mi ESE 16.1 mph - N/A   Overcast
9:53 PM 35.1 °F 25.5 °F 34.0 °F 96% 29.88 in 4.0 mi ESE 15.0 mph - N/A   Overcast
10:53 PM 35.1 °F 25.5 °F 34.0 °F 96% 29.86 in 4.0 mi ESE 15.0 mph - 0.00 in Rain Light Rain
11:11 PM 35.6 °F 27.1 °F 33.8 °F 93% 29.82 in 2.5 mi ESE 12.7 mph - 0.01 in Rain Light Rain
11:21 PM 35.6 °F 25.5 °F 33.8 °F 93% 29.79 in 3.0 mi ESE 17.3 mph - 0.01 in Rain Light Rain
11:53 PM 35.6 °F 25.9 °F 33.8 °F 93% 29.77 in 3.0 mi East 16.1 mph - N/A Rain Light Rain